DateTimeUTC,F1_A11,F1_S11,BsB_S11,BsG_S11,BsR_S11,BbsB_S11,BbsG_S11,BbsR_S11,BaB_A11,BaG_A11,BaR_A11,Tu_S11,T_S11,Uu_S11,U_S11,P_S11,T1_A11
2021-08-30T00:00:00Z,00000200,20000000,,,,,,,0000.18,-000.03,-000.19,18.3,25.3,01.7,01.1,0667.9,30.9
2021-08-30T00:01:00Z,00000200,20000000,,,,,,,-000.13,0000.42,-000.04,18.3,25.3,01.6,01.0,0667.9,30.9
2021-08-30T00:02:00Z,00000200,20000000,,,,,,,0000.01,-000.53,0000.22,18.3,25.4,01.5,01.0,0667.9,31.0
2021-08-30T00:03:00Z,00000200,60000000,,,,,,,0000.27,0000.48,0000.03,18.4,25.4,01.5,01.0,0667.9,31.0
2021-08-30T00:04:00Z,00000200,41000000,0004.46,0003.67,0002.32,0000.55,0000.31,0000.36,0000.85,0001.09,0000.87,18.8,25.3,01.4,01.0,0668.9,31.0
2021-08-30T00:05:00Z,00000200,01000000,0004.05,0003.42,0001.93,0000.97,0000.09,0000.30,0000.73,0000.20,0000.38,18.9,25.3,01.4,01.0,0668.9,31.0
2021-08-30T00:06:00Z,00000200,01000000,0003.64,0003.20,0002.18,0000.73,0000.43,0000.39,0000.17,0000.49,0000.25,18.8,25.3,01.5,01.0,0668.9,31.0
2021-08-30T00:07:00Z,00000200,01000000,0004.49,0002.99,0001.87,0000.45,0000.67,0000.08,0001.03,0000.74,0000.51,18.8,25.3,01.4,01.0,0668.9,30.9
2021-08-30T00:08:00Z,00000200,01000000,0004.39,0002.89,0002.36,0001.22,0000.63,0000.56,0000.41,0000.48,0000.53,18.7,25.2,01.3,00.9,0668.9,30.9
2021-08-30T00:09:00Z,00000200,01000000,0004.56,0003.71,0002.20,0000.38,0000.48,0000.13,0000.56,0000.41,0000.48,18.7,25.2,01.4,01.0,0669.0,31.0
2021-08-30T00:10:00Z,00000200,01000000,0004.11,0003.42,0002.17,0000.44,0000.51,0000.03,0000.84,0000.65,0000.52,18.6,25.2,01.3,00.9,0669.0,30.9
2021-08-30T00:11:00Z,00000200,01000000,0004.60,0003.14,0002.59,0000.20,0000.53,0000.68,0000.46,0000.53,0000.09,18.5,25.1,01.3,00.9,0669.0,30.9
2021-08-30T00:12:00Z,00000200,01000000,0004.82,0003.16,0002.19,0000.74,0000.69,0000.51,0000.73,0000.53,0000.54,18.5,25.1,01.3,00.9,0669.0,30.9
2021-08-30T00:13:00Z,00000200,01000000,0004.54,0003.14,0002.28,0000.20,0000.49,0000.45,0000.45,0000.73,0000.77,18.4,25.1,01.3,00.8,0668.9,30.9
2021-08-30T00:14:00Z,00000200,01000000,0003.67,0003.29,0002.28,0000.38,0000.56,0000.49,0001.00,0000.78,0000.94,18.4,25.0,01.3,00.8,0668.9,30.9
2021-08-30T00:15:00Z,00000200,01000000,0004.91,0003.62,0002.01,0000.52,0000.42,0000.04,0001.05,0000.91,0000.27,18.4,25.0,01.2,00.8,0669.0,30.9
2021-08-30T00:16:00Z,00000200,01000000,0004.37,0003.25,0002.57,0001.08,0000.32,0000.49,0001.03,0001.18,0000.92,18.5,25.1,01.2,00.8,0669.0,30.9
2021-08-30T00:17:00Z,00000200,01000000,0005.37,0003.62,0002.86,0000.54,0000.65,0000.68,0000.75,0000.56,0000.76,18.7,25.1,01.3,00.9,0669.0,31.0
2021-08-30T00:18:00Z,00000200,01000000,0004.19,0003.60,0002.64,0000.43,0000.61,0000.31,0000.86,0001.01,0000.44,18.8,25.2,01.3,00.9,0669.0,31.0
2021-08-30T00:19:00Z,00000200,01000000,0005.19,0003.85,0002.50,0000.69,0000.41,0000.48,0000.98,0000.68,0000.61,18.9,25.2,01.3,00.9,0669.0,31.0
2021-08-30T00:20:00Z,00000200,01000000,0005.53,0003.81,0002.22,0001.14,0000.51,0000.24,0000.73,0000.76,0001.10,18.9,25.3,01.2,00.8,0669.0,31.0
2021-08-30T00:21:00Z,00000200,01000000,0004.68,0003.98,0002.68,0000.94,0000.40,0000.61,0000.34,0000.55,0000.45,19.0,25.3,01.2,00.8,0669.0,31.0
2021-08-30T00:22:00Z,00000200,01000000,0005.37,0003.59,0002.99,0000.99,0000.43,0000.47,0000.99,0000.37,0000.20,18.9,25.3,01.2,00.8,0669.0,31.0
2021-08-30T00:23:00Z,00000200,01000000,0004.19,0003.60,0002.47,0000.68,0000.32,0000.31,0000.70,0001.09,0000.42,18.8,25.2,01.3,00.9,0669.0,31.0
2021-08-30T00:24:00Z,00000200,01000000,0005.35,0003.96,0002.65,0000.69,0000.41,0000.53,0000.96,0000.76,0000.92,18.8,25.2,01.2,00.8,0669.0,31.0
2021-08-30T00:25:00Z,00000200,01000000,0003.93,0003.91,0002.48,0000.90,0000.55,0000.42,0000.88,0000.84,0000.55,18.7,25.2,01.2,00.8,0669.0,31.0
2021-08-30T00:26:00Z,00000200,01000000,0004.64,0004.07,0002.68,0000.78,0000.16,0000.99,0000.82,0000.61,0000.15,18.6,25.1,01.2,00.8,0669.0,31.0
2021-08-30T00:27:00Z,00000200,01000000,0005.45,0004.21,0002.63,0000.83,0000.17,0000.63,0000.74,0000.80,0000.81,18.6,25.1,01.2,00.8,0669.0,30.9
2021-08-30T00:28:00Z,00000200,01000000,0005.12,0003.77,0002.50,0000.62,0000.43,0000.54,0001.04,0001.04,0000.84,18.5,25.1,01.2,00.8,0669.0,30.9
2021-08-30T00:29:00Z,00000200,01000000,0004.73,0003.72,0002.65,0000.74,0000.90,0000.45,0001.15,0000.98,0000.88,18.5,25.0,01.2,00.8,0669.0,30.9
2021-08-30T00:30:00Z,00000200,01000000,0004.38,0003.83,0002.54,0000.29,0000.40,-000.01,0000.93,0001.08,0000.97,18.5,25.0,01.2,00.8,0669.0,30.9
2021-08-30T00:31:00Z,00000200,01000000,0005.76,0003.96,0002.65,0000.97,0000.96,0000.28,0001.11,0000.59,0000.93,18.6,25.1,01.3,00.9,0669.0,30.9
2021-08-30T00:32:00Z,00000200,01000000,0004.26,0004.16,0002.52,0000.57,0000.85,0000.27,0000.92,0000.88,0000.35,18.7,25.1,01.2,00.8,0669.0,31.0
2021-08-30T00:33:00Z,00000200,01000000,0004.92,0003.86,0002.68,0000.75,0000.51,0000.45,0000.76,0001.05,0000.94,18.8,25.2,01.1,00.7,0669.1,31.0
2021-08-30T00:34:00Z,00000200,01000000,0004.86,0003.88,0002.65,0001.16,0000.42,0000.44,0001.02,0000.99,0000.89,18.9,25.3,01.2,00.8,0669.1,31.0
2021-08-30T00:35:00Z,00000200,01000000,0005.09,0004.20,0002.60,0000.45,0000.22,0000.40,0000.68,0000.53,0000.31,19.0,25.3,01.1,00.8,0669.1,31.0
2021-08-30T00:36:00Z,00000200,01000000,0005.11,0004.17,0002.65,0000.67,0000.53,0000.45,0000.86,0001.34,0001.12,19.1,25.3,01.2,00.8,0669.1,31.0
2021-08-30T00:37:00Z,00000200,01000000,0004.62,0003.84,0002.39,0000.68,0000.51,0000.36,0000.59,0000.38,0000.03,19.0,25.3,01.2,00.8,0669.1,31.0
2021-08-30T00:38:00Z,00000200,01000000,0004.90,0003.59,0002.59,0001.31,0000.73,0000.22,0001.23,0000.36,0000.32,18.9,25.3,01.1,00.8,0669.1,31.0
2021-08-30T00:39:00Z,00000200,01000000,0004.60,0003.53,0002.51,0000.52,0000.31,0000.44,0000.39,0001.01,0000.60,18.9,25.3,01.1,00.8,0669.1,31.0
2021-08-30T00:40:00Z,00000200,01000000,0004.95,0003.75,0002.56,0000.80,0000.58,0000.55,0001.09,0000.70,0000.87,18.8,25.2,01.2,00.8,0669.1,31.0
2021-08-30T00:41:00Z,00000200,01000000,0004.90,0003.69,0002.45,0001.04,0000.50,0000.21,0000.65,0000.59,0000.58,18.7,25.2,01.2,00.8,0669.1,31.0
2021-08-30T00:42:00Z,00000200,01000000,0004.43,0003.34,0002.58,0000.70,0000.47,0000.34,0000.76,0000.68,0000.79,18.6,25.2,01.2,00.8,0669.1,30.9
2021-08-30T00:43:00Z,00000200,01000000,0003.97,0003.41,0002.67,0001.29,0000.75,0000.51,0001.16,0001.38,0000.77,18.6,25.1,01.1,00.8,0669.1,30.9
2021-08-30T00:44:00Z,00000200,01000000,0004.66,0003.94,0002.22,0000.25,0000.74,0000.12,0001.13,0000.72,0000.72,18.6,25.1,01.2,00.8,0669.1,30.9
2021-08-30T00:45:00Z,00000200,01000000,0005.01,0003.59,0002.52,0001.34,0000.34,0000.52,0000.83,0001.26,0000.78,18.6,25.1,01.2,00.8,0669.1,30.9
2021-08-30T00:46:00Z,00000200,01000000,0004.63,0003.43,0002.29,-000.20,0000.56,0000.35,0000.81,0000.78,0000.69,18.7,25.1,01.3,00.9,0669.1,30.9
2021-08-30T00:47:00Z,00000200,01000000,0004.75,0003.37,0002.50,0000.85,0000.26,0000.26,0001.18,0001.10,0000.86,18.8,25.2,01.3,00.9,0669.1,31.0
2021-08-30T00:48:00Z,00000200,01000000,0004.49,0003.45,0002.27,0000.13,0000.55,0000.54,0000.70,0000.40,0000.54,18.9,25.2,01.3,00.9,0669.1,31.0
2021-08-30T00:49:00Z,00000200,01000000,0004.22,0003.61,0002.22,0000.30,0000.62,0000.26,0000.89,0000.80,0000.84,19.0,25.3,01.2,00.8,0669.1,31.0
2021-08-30T00:50:00Z,00000200,01000000,0004.26,0003.70,0002.32,0001.02,0000.47,0000.42,0001.10,0000.92,0000.48,19.0,25.3,01.2,00.8,0669.1,31.0
2021-08-30T00:51:00Z,00000200,01000000,0004.32,0003.47,0002.11,0000.60,0000.36,0000.06,0000.59,0000.48,0000.58,19.0,25.3,01.3,00.9,0669.1,31.0
2021-08-30T00:52:00Z,00000200,01000000,0004.40,0003.52,0002.45,-000.22,0000.26,0000.39,0000.09,0000.41,0000.14,18.9,25.2,01.3,00.9,0669.1,31.0
2021-08-30T00:53:00Z,00000200,01000000,0004.66,0003.24,0002.40,0000.61,0000.62,0000.34,0001.31,0001.26,0000.69,18.8,25.2,01.2,00.8,0669.1,30.9
2021-08-30T00:54:00Z,00000200,01000000,0004.85,0003.08,0002.49,0000.87,0000.54,0000.38,0000.79,0000.43,0000.67,18.7,25.2,01.2,00.8,0669.1,30.9
2021-08-30T00:55:00Z,00000200,01000000,0005.11,0003.46,0002.38,0000.81,0000.70,0000.40,0000.72,0000.46,0000.46,18.7,25.2,01.3,00.9,0669.1,31.0
2021-08-30T00:56:00Z,00000200,01000000,0004.83,0003.52,0002.47,0000.38,0000.62,0000.50,0000.51,0000.77,0000.53,18.6,25.1,01.2,00.8,0669.1,30.9
2021-08-30T00:57:00Z,00000200,41000000,,,,,,,0000.62,0000.75,0000.59,18.6,25.2,01.6,01.1,0669.2,30.9
2021-08-30T00:58:00Z,00000200,61000000,,,,,,,-000.08,-000.45,-000.25,18.2,25.2,01.2,00.8,0668.1,30.9
2021-08-30T00:59:00Z,00000200,21000000,,,,,,,0000.04,0000.03,0000.43,18.2,25.3,01.2,00.8,0668.1,30.9
